Location: Brede
(50.9167°N, 0.6000°E)
Time: 17:04:44
(UTC+00:00)

CZ-4C R/B - Pass Details

Date: 08 August 2020
Orbit: 465 x 635 km, 98.0° (Epoch: 23 September)

Event Time Altitude Azimuth Distance (km) Brightness Sun altitude
Exits shadow 01:00:41 28° 100° (E) 910 4.4 -21.9°
Maximum altitude 01:01:36 33° 67° (ENE) 815 4.5 -21.8°
Drops below altitude 10° 01:04:50 10° 2° (N) 1,671 6.9 -21.7°
Sets 01:07:03 0° 353° (N) 2,577 7.9 -21.6°
